| time (UTC) | temp F | wind direction | speed MPH | gust MPH | rain 1hr in | rain 24hr in | rain mn in | humidity % | barometer mb |
| 20260507000016 | 58 | 319 | 5.0 | 10.0 | 0.00 | 0.00 | 0.00 | 30 | 1018.3 |
| 20260506234527 | 59 | 305 | 8.0 | 13.0 | 0.00 | 0.00 | 0.00 | 29 | 1018.2 |
| 20260506233025 | 58 | 316 | 5.0 | 12.0 | 0.00 | 0.00 | 0.00 | 29 | 1018.1 |
| 20260506231527 | 58 | 32 | 7.0 | 16.0 | 0.00 | 0.00 | 0.00 | 27 | 1018.1 |
| 20260506230029 | 58 | 306 | 5.0 | 13.0 | 0.00 | 0.00 | 0.00 | 28 | 1018.2 |
| 20260506224516 | 57 | 52 | 8.0 | 13.0 | 0.00 | 0.00 | 0.00 | 26 | 1018.2 |
| 20260506223022 | 57 | 313 | 7.0 | 15.0 | 0.00 | 0.00 | 0.00 | 25 | 1018.5 |
| 20260506221526 | 57 | 311 | 6.0 | 17.0 | 0.00 | 0.00 | 0.00 | 24 | 1018.7 |
| 20260506220034 | 56 | 327 | 5.0 | 13.0 | 0.00 | 0.00 | 0.00 | 23 | 1018.7 |
| 20260506214527 | 56 | 286 | 4.0 | 11.0 | 0.00 | 0.00 | 0.00 | 24 | 1018.9 |
| 20260506213021 | 55 | 289 | 9.0 | 18.0 | 0.00 | 0.00 | 0.00 | 25 | 1019.2 |
| 20260506211529 | 54 | 18 | 4.0 | 16.0 | 0.00 | 0.00 | 0.00 | 25 | 1018.9 |
| 20260506210009 | 54 | 287 | 6.0 | 12.0 | 0.00 | 0.00 | 0.00 | 26 | 1019.1 |
| 20260506204504 | 53 | 290 | 3.0 | 9.0 | 0.00 | 0.00 | 0.00 | 26 | 1018.9 |
| 20260506203007 | 54 | 290 | 4.0 | 9.0 | 0.00 | 0.00 | 0.00 | 25 | 1018.9 |
| 20260506201513 | 53 | 248 | 5.0 | 11.0 | 0.00 | 0.00 | 0.00 | 26 | 1018.9 |
| 20260506200009 | 52 | 285 | 1.0 | 8.0 | 0.00 | 0.00 | 0.00 | 26 | 1018.9 |
| 20260506194508 | 51 | 118 | 1.0 | 8.0 | 0.00 | 0.00 | 0.00 | 26 | 1019.2 |
| 20260506193004 | 51 | 297 | 4.0 | 8.0 | 0.00 | 0.00 | 0.00 | 27 | 1019.5 |
| 20260506191506 | 50 | 23 | 2.0 | 10.0 | 0.00 | 0.00 | 0.00 | 25 | 1019.5 |
| 20260506190012 | 50 | 344 | 3.0 | 7.0 | 0.00 | 0.00 | 0.00 | 24 | 1019.6 |
| 20260506184520 | 49 | 49 | 2.0 | 7.0 | 0.00 | 0.00 | 0.00 | 24 | 1019.5 |
| 20260506183006 | 48 | 210 | 0.0 | 10.0 | 0.00 | 0.00 | 0.00 | 30 | 1019.6 |
| 20260506181515 | 47 | 279 | 1.0 | 8.0 | 0.00 | 0.00 | 0.00 | 27 | 1019.7 |
| 20260506180023 | 46 | 261 | 1.0 | 7.0 | 0.00 | 0.00 | 0.00 | 27 | 1019.7 |
| 20260506174522 | 45 | 168 | 2.0 | 8.0 | 0.00 | 0.00 | 0.00 | 24 | 1019.9 |
| 20260506173008 | 44 | 282 | 3.0 | 5.0 | 0.00 | 0.00 | 0.00 | 25 | 1020.1 |
| 20260506171515 | 44 | 349 | 1.0 | 4.0 | 0.00 | 0.00 | 0.00 | 28 | 1020.3 |
| 20260506170012 | 43 | 233 | 2.0 | 6.0 | 0.00 | 0.00 | 0.00 | 32 | 1020.5 |
| 20260506164510 | 43 | 213 | 2.0 | 6.0 | 0.00 | 0.00 | 0.00 | 34 | 1020.5 |
| 20260506163010 | 42 | 219 | 1.0 | 6.0 | 0.00 | 0.00 | 0.00 | 36 | 1020.6 |
| 20260506161510 | 41 | 60 | 1.0 | 6.0 | 0.00 | 0.00 | 0.00 | 37 | 1020.7 |
| 20260506160018 | 39 | 51 | 2.0 | 5.0 | 0.00 | 0.00 | 0.00 | 43 | 1020.9 |
| 20260506154521 | 38 | 110 | 1.0 | 4.0 | 0.00 | 0.00 | 0.00 | 44 | 1021.1 |
| 20260506153011 | 37 | 51 | 0.0 | 2.0 | 0.00 | 0.00 | 0.00 | 48 | 1021.1 |
| 20260506151511 | 36 | 129 | 1.0 | 2.0 | 0.00 | 0.00 | 0.00 | 51 | 1021.1 |
| 20260506150010 | 34 | 89 | 0.0 | 3.0 | 0.00 | 0.00 | 0.00 | 55 | 1021.1 |
| 20260506144516 | 30 | 115 | 1.0 | 2.0 | 0.00 | 0.00 | 0.00 | 65 | 1021.0 |
| 20260506143011 | 26 | 105 | 0.0 | 0.0 | 0.00 | 0.00 | 0.00 | 69 | 1021.1 |
| 20260506141512 | 26 | 157 | 0.0 | 0.0 | 0.00 | 0.00 | 0.00 | 71 | 1021.1 |
| 20260506140018 | 25 | 157 | 0.0 | 0.0 | 0.00 | 0.00 | 0.00 | 72 | 1021.1 |
| 20260506134514 | 25 | 157 | 0.0 | 0.0 | 0.00 | 0.00 | 0.00 | 73 | 1020.9 |
| 20260506133025 | 24 | 89 | 0.0 | 0.0 | 0.00 | 0.00 | 0.00 | 72 | 1020.9 |
| 20260506131516 | 24 | 89 | 0.0 | 0.0 | 0.00 | 0.00 | 0.00 | 72 | 1020.7 |
| 20260506130019 | 24 | 89 | 0.0 | 0.0 | 0.00 | 0.00 | 0.00 | 72 | 1020.5 |
| 20260506124521 | 25 | 146 | 0.0 | 0.0 | 0.00 | 0.00 | 0.00 | 71 | 1020.2 |
| 20260506123016 | 25 | 143 | 0.0 | 0.0 | 0.00 | 0.00 | 0.00 | 70 | 1020.0 |
| 20260506121518 | 25 | 55 | 0.0 | 0.0 | 0.00 | 0.00 | 0.00 | 70 | 1019.8 |
| 20260506120020 | 26 | 83 | 0.0 | 0.0 | 0.00 | 0.00 | 0.00 | 68 | 1019.7 |
| 20260506114517 | 26 | 83 | 0.0 | 3.0 | 0.00 | 0.00 | 0.00 | 66 | 1019.6 |
| 20260506113022 | 27 | 82 | 1.0 | 2.0 | 0.00 | 0.00 | 0.00 | 66 | 1019.4 |
| 20260506111519 | 26 | 106 | 0.0 | 2.0 | 0.00 | 0.00 | 0.00 | 67 | 1019.3 |
| 20260506110022 | 26 | 129 | 0.0 | 2.0 | 0.00 | 0.00 | 0.00 | 66 | 1019.1 |
| 20260506104517 | 27 | 106 | 0.0 | 2.0 | 0.00 | 0.00 | 0.00 | 66 | 1018.9 |
| 20260506103018 | 27 | 135 | 0.0 | 1.0 | 0.00 | 0.01 | 0.00 | 64 | 1018.8 |
| 20260506101513 | 28 | 59 | 0.0 | 2.0 | 0.00 | 0.01 | 0.00 | 63 | 1018.5 |
| 20260506100022 | 29 | 198 | 0.0 | 3.0 | 0.00 | 0.01 | 0.00 | 62 | 1018.4 |
| 20260506094522 | 31 | 102 | 3.0 | 8.0 | 0.00 | 0.01 | 0.00 | 55 | 1018.2 |
| 20260506093020 | 33 | 40 | 7.0 | 14.0 | 0.00 | 0.01 | 0.00 | 51 | 1018.0 |
| 20260506091523 | 33 | 345 | 6.0 | 12.0 | 0.00 | 0.01 | 0.00 | 52 | 1018.0 |
| 20260506090025 | 33 | 9 | 3.0 | 9.0 | 0.00 | 0.01 | 0.00 | 52 | 1018.1 |
| 20260506084518 | 33 | 5 | 4.0 | 11.0 | 0.00 | 0.01 | 0.00 | 52 | 1018.1 |
| 20260506083024 | 33 | 328 | 2.0 | 9.0 | 0.00 | 0.01 | 0.00 | 53 | 1018.0 |
| 20260506081522 | 33 | 329 | 4.0 | 10.0 | 0.00 | 0.01 | 0.00 | 52 | 1017.9 |
| 20260506073020 | 34 | 309 | 5.0 | 14.0 | 0.00 | 0.01 | 0.00 | 50 | 1017.7 |
| 20260506071522 | 34 | 42 | 3.0 | 10.0 | 0.00 | 0.01 | 0.00 | 50 | 1017.5 |
| 20260506061523 | 36 | 333 | 4.0 | 20.0 | 0.00 | 0.01 | 0.00 | 46 | 1017.1 |
| 20260506044530 | 39 | 295 | 3.0 | 10.0 | 0.00 | 0.01 | 0.01 | 39 | 1016.1 |
| 20260506043027 | 40 | 18 | 4.0 | 8.0 | 0.00 | 0.01 | 0.01 | 38 | 1016.4 |
| 20260506041526 | 40 | 299 | 4.0 | 9.0 | 0.00 | 0.01 | 0.01 | 38 | 1016.2 |
| 20260506040022 | 40 | 352 | 5.0 | 14.0 | 0.00 | 0.01 | 0.01 | 37 | 1015.8 |
| 20260506034522 | 40 | 7 | 5.0 | 12.0 | 0.00 | 0.01 | 0.01 | 37 | 1015.6 |
| 20260506033035 | 40 | 285 | 6.0 | 13.0 | 0.00 | 0.01 | 0.01 | 39 | 1015.6 |
| 20260506031533 | 39 | 94 | 7.0 | 18.0 | 0.00 | 0.01 | 0.01 | 43 | 1015.3 |
| 20260506030040 | 40 | 176 | 2.0 | 17.0 | 0.00 | 0.01 | 0.01 | 46 | 1014.9 |
| 20260506024527 | 41 | 106 | 8.0 | 18.0 | 0.00 | 0.01 | 0.01 | 46 | 1014.4 |
| 20260506023007 | 42 | 67 | 7.0 | 16.0 | 0.00 | 0.01 | 0.01 | 42 | 1013.5 |
| 20260506021508 | 42 | 150 | 6.0 | 17.0 | 0.00 | 0.01 | 0.01 | 45 | 1013.2 |
| 20260506020014 | 43 | 75 | 7.0 | 17.0 | 0.00 | 0.01 | 0.01 | 44 | 1012.8 |
| 20260506014527 | 45 | 349 | 4.0 | 16.0 | 0.00 | 0.01 | 0.01 | 39 | 1012.5 |
| 20260506013024 | 45 | 202 | 2.0 | 14.0 | 0.00 | 0.01 | 0.01 | 37 | 1012.3 |
| 20260506011506 | 47 | 184 | 3.0 | 21.0 | 0.00 | 0.01 | 0.01 | 34 | 1011.6 |
| 20260506010009 | 48 | 54 | 3.0 | 22.0 | 0.00 | 0.01 | 0.01 | 32 | 1011.5 |
| 20260506004525 | 50 | 145 | 2.0 | 17.0 | 0.00 | 0.01 | 0.01 | 29 | 1011.3 |
| 20260506003024 | 51 | 270 | 7.0 | 16.0 | 0.00 | 0.01 | 0.01 | 29 | 1011.2 |
| 20260506001523 | 51 | 321 | 5.0 | 20.0 | 0.00 | 0.01 | 0.01 | 30 | 1011.3 |